QPF
0.03 0.03 0.02 0.03 0.04 0.06 0.04 0.03 0.02 0.02 0.01 0.01 0.01 0.01 0.01 0.01 0.02 0.04 0.04 0.04 0.04 0.04 0.03 0.02 0.02 0.02 0.02 0.02 0.03 0.03 0.03 0.03 0.02 0.02 0.04 0.05 0.04 0.03 0.03 0.03 0.03 0.03 0.03
0.03 0.03 0.03 0.04 0.05 0.06 0.04 0.03 0.02 0.02 0.01 0.01 0.02 0.01 0.00 0.00 0.01 0.03 0.05 0.05 0.06 0.07 0.05 0.04 0.02 0.02 0.02 0.01 0.01 0.01 0.02 0.02 0.02 0.02 0.03 0.06 0.05 0.03 0.03 0.04 0.04 0.03 0.03
0.02 0.03 0.03 0.04 0.05 0.05 0.05 0.04 0.03 0.02 0.01 0.01 0.01 0.01 0.01 0.01 0.01 0.02 0.03 0.03 0.03 0.04 0.05 0.06 0.06 0.05 0.03 0.02 0.02 0.01 0.02 0.02 0.02 0.03 0.05 0.06 0.08 0.04 0.05 0.05 0.04 0.03 0.03
0.02 0.03 0.04 0.05 0.07 0.07 0.07 0.06 0.06 0.05 0.04 0.03 0.02 0.02 0.01 0.01 0.01 0.02 0.02 0.02 0.02 0.02 0.02 0.03 0.04 0.06 0.06 0.05 0.04 0.03 0.02 0.02 0.03 0.04 0.07 0.08 0.06 0.05 0.05 0.05 0.05 0.04 0.03
0.01 0.01 0.02 0.02 0.03 0.05 0.07 0.08 0.07 0.07 0.07 0.05 0.04 0.03 0.02 0.02 0.02 0.02 0.02 0.01 0.01 0.01 0.01 0.01 0.01 0.02 0.02 0.03 0.03 0.03 0.03 0.03 0.02 0.03 0.06 0.09 0.07 0.06 0.05 0.05 0.04 0.04 0.04
0.01 0.01 0.02 0.02 0.02 0.03 0.05 0.06 0.07 0.06 0.06 0.05 0.04 0.03 0.02 0.01 0.01 0.01 0.01 0.01 0.01 0.01 0.01 0.01 0.01 0.01 0.02 0.02 0.02 0.03 0.03 0.03 0.02 0.02 0.04 0.05 0.06 0.05 0.06 0.06 0.05 0.04 0.04
0.02 0.02 0.02 0.02 0.02 0.02 0.02 0.04 0.05 0.06 0.05 0.04 0.03 0.03 0.02 0.02 0.01 0.01 0.01 0.01 0.01 0.01 0.01 0.01 0.01 0.01 0.01 0.01 0.02 0.02 0.02 0.03 0.03 0.03 0.03 0.03 0.05 0.06 0.06 0.06 0.05 0.03 0.03
0.02 0.02 0.02 0.02 0.02 0.01 0.01 0.02 0.02 0.04 0.05 0.05 0.04 0.03 0.03 0.02 0.01 0.00 0.00 0.01 0.01 0.01 0.01 0.01 0.01 0.01 0.01 0.01 0.02 0.02 0.03 0.03 0.03 0.02 0.02 0.02 0.04 0.06 0.06 0.05 0.05 0.04 0.03
0.02 0.03 0.03 0.03 0.03 0.01 0.01 0.01 0.01 0.01 0.01 0.02 0.03 0.03 0.02 0.01 0.01 0.00 0.00 0.01 0.01 0.01 0.01 0.01 0.01 0.01 0.01 0.01 0.01 0.02 0.03 0.04 0.04 0.03 0.02 0.01 0.02 0.03 0.04 0.05 0.06 0.05 0.04
0.03 0.03 0.04 0.04 0.02 0.01 0.01 0.01 0.01 0.01 0.01 0.00 0.01 0.02 0.01 0.00 0.00 0.00 0.00 0.00 0.00 0.00 0.00 0.00 0.01 0.01 0.01 0.00 0.00 0.01 0.02 0.02 0.03 0.02 0.02 0.02 0.02 0.02 0.03 0.04 0.05 0.05 0.04
0.03 0.03 0.03 0.03 0.02 0.02 0.01 0.01 0.00 0.00 0.00 0.01 0.01 0.00 0.00 0.00 0.00 0.01 0.00 0.00 0.00 0.00 0.00 0.00 0.00 0.01 0.01 0.00 0.00 0.01 0.01 0.01 0.01 0.02 0.02 0.02 0.02 0.02 0.02 0.03 0.04 0.05 0.04
0.03 0.02 0.03 0.02 0.02 0.02 0.01 0.01 0.00 0.00 0.00 0.01 0.00 0.00 0.00 0.00 0.00 0.01 0.00 0.00 0.00 0.00 0.00 0.00 0.00 0.00 0.01 0.01 0.00 0.01 0.01 0.01 0.01 0.03 0.03 0.03 0.02 0.02 0.02 0.02 0.03 0.04 0.05
0.02 0.02 0.02 0.02 0.02 0.01 0.01 0.01 0.00 0.00 0.00 0.00 0.00 0.00 0.00 0.01 0.01 0.01 0.01 0.01 0.00 0.00 0.00 0.00 0.00 0.00 0.00 0.00 0.01 0.02 0.01 0.01 0.01 0.02 0.02 0.03 0.03 0.02 0.02 0.01 0.02 0.04 0.04
0.03 0.02 0.02 0.02 0.01 0.01 0.01 0.01 0.01 0.00 0.00 0.00 0.00 0.00 0.01 0.01 0.01 0.01 0.01 0.01 0.00 0.00 0.00 0.00 0.00 0.00 0.01 0.01 0.01 0.01 0.01 0.01 0.01 0.02 0.01 0.01 0.01 0.01 0.02 0.02 0.02 0.03 0.05
0.03 0.03 0.02 0.01 0.01 0.01 0.01 0.00 0.00 0.00 0.00 0.00 0.00 0.00 0.01 0.01 0.01 0.01 0.01 0.01 0.01 0.00 0.00 0.00 0.00 0.00 0.01 0.02 0.02 0.01 0.01 0.01 0.00 0.00 0.00 0.01 0.01 0.01 0.02 0.02 0.02 0.02 0.04
0.03 0.03 0.02 0.02 0.01 0.01 0.01 0.01 0.01 0.00 0.00 0.00 0.00 0.00 0.01 0.01 0.01 0.00 0.01 0.01 0.01 0.01 0.01 0.01 0.00 0.00 0.02 0.03 0.02 0.01 0.01 0.00 0.01 0.02 0.01 0.00 0.01 0.01 0.02 0.02 0.02 0.02 0.04
0.02 0.03 0.02 0.02 0.02 0.01 0.01 0.01 0.01 0.01 0.00 0.00 0.00 0.00 0.00 0.01 0.01 0.01 0.01 0.01 0.01 0.01 0.00 0.00 0.00 0.01 0.02 0.04 0.03 0.02 0.01 0.01 0.01 0.01 0.01 0.00 0.01 0.01 0.02 0.02 0.02 0.02 0.03
0.02 0.03 0.03 0.02 0.01 0.01 0.01 0.01 0.01 0.01 0.01 0.00 0.00 0.01 0.00 0.00 0.01 0.01 0.01 0.01 0.01 0.01 0.00 0.00 0.01 0.01 0.01 0.02 0.02 0.03 0.03 0.03 0.02 0.02 0.01 0.01 0.01 0.01 0.01 0.01 0.02 0.02 0.02
0.02 0.03 0.03 0.02 0.01 0.01 0.01 0.02 0.02 0.02 0.02 0.01 0.01 0.01 0.01 0.01 0.01 0.01 0.00 0.00 0.00 0.00 0.00 0.01 0.01 0.01 0.01 0.01 0.01 0.01 0.02 0.03 0.03 0.02 0.02 0.02 0.01 0.01 0.01 0.01 0.01 0.01 0.01
0.02 0.02 0.03 0.03 0.02 0.02 0.02 0.02 0.03 0.03 0.03 0.03 0.02 0.01 0.01 0.01 0.01 0.01 0.00 0.00 0.00 0.00 0.00 0.00 0.01 0.01 0.01 0.02 0.02 0.01 0.01 0.02 0.03 0.02 0.02 0.01 0.02 0.01 0.01 0.02 0.01 0.01 0.01
0.03 0.03 0.04 0.04 0.03 0.03 0.04 0.03 0.03 0.03 0.04 0.03 0.02 0.01 0.01 0.01 0.01 0.01 0.01 0.01 0.00 0.00 0.00 0.00 0.00 0.00 0.00 0.01 0.01 0.01 0.02 0.02 0.02 0.01 0.01 0.01 0.01 0.01 0.01 0.02 0.02 0.01 0.01
0.03 0.03 0.03 0.03 0.03 0.03 0.03 0.03 0.03 0.03 0.03 0.03 0.03 0.02 0.01 0.01 0.01 0.00 0.00 0.00 0.00 0.00 0.00 0.00 0.00 0.00 0.00 0.00 0.00 0.01 0.01 0.01 0.01 0.01 0.01 0.01 0.01 0.01 0.01 0.01 0.01 0.01 0.01
0.04 0.03 0.02 0.02 0.02 0.02 0.02 0.02 0.03 0.03 0.02 0.03 0.03 0.01 0.01 0.01 0.01 0.00 0.00 0.00 0.00 0.00 0.00 0.00 0.00 0.00 0.00 0.00 0.01 0.01 0.01 0.00 0.00 0.00 0.01 0.01 0.01 0.02 0.02 0.01 0.01 0.01 0.01
0.04 0.04 0.03 0.02 0.02 0.02 0.02 0.02 0.02 0.02 0.01 0.03 0.03 0.01 0.01 0.01 0.01 0.00 0.00 0.00 0.00 0.00 0.00 0.01 0.00 0.01 0.01 0.01 0.01 0.01 0.02 0.01 0.01 0.01 0.01 0.02 0.02 0.03 0.03 0.03 0.02 0.02 0.01
0.03 0.03 0.03 0.02 0.02 0.02 0.02 0.02 0.02 0.02 0.02 0.01 0.02 0.01 0.01 0.01 0.01 0.01 0.00 0.00 0.00 0.00 0.00 0.00 0.00 0.00 0.01 0.01 0.01 0.02 0.03 0.03 0.03 0.03 0.03 0.02 0.02 0.02 0.03 0.02 0.01 0.02 0.02
0.01 0.02 0.02 0.02 0.02 0.02 0.02 0.02 0.02 0.03 0.03 0.02 0.01 0.01 0.01 0.01 0.01 0.01 0.01 0.01 0.00 0.00 0.00 0.00 0.00 0.00 0.00 0.01 0.01 0.01 0.02 0.03 0.03 0.03 0.04 0.04 0.05 0.05 0.05 0.04 0.02 0.02 0.02
MSLP
1010.74 1011.04 1011.26 1011.41 1011.49 1011.54 1011.56 1011.59 1011.63 1011.68 1011.73 1011.77 1011.79 1011.76 1011.68 1011.56 1011.39 1011.20 1011.02 1010.85 1010.70 1010.59 1010.50 1010.42 1010.34 1010.23 1010.10 1009.92 1009.72 1009.48 1009.23 1008.98 1008.73 1008.48 1008.24 1008.01 1007.78 1007.57 1007.38 1007.22 1007.12 1007.09 1007.15
1010.69 1010.95 1011.12 1011.21 1011.24 1011.24 1011.24 1011.24 1011.26 1011.30 1011.35 1011.39 1011.40 1011.36 1011.28 1011.15 1010.98 1010.80 1010.62 1010.45 1010.30 1010.19 1010.08 1009.99 1009.89 1009.77 1009.63 1009.46 1009.28 1009.09 1008.90 1008.73 1008.57 1008.42 1008.27 1008.11 1007.94 1007.76 1007.58 1007.41 1007.26 1007.17 1007.16
1010.65 1010.87 1010.99 1011.02 1011.00 1010.95 1010.91 1010.88 1010.89 1010.92 1010.95 1010.99 1010.99 1010.95 1010.87 1010.74 1010.58 1010.41 1010.24 1010.08 1009.95 1009.83 1009.72 1009.62 1009.50 1009.36 1009.20 1009.03 1008.86 1008.70 1008.56 1008.44 1008.36 1008.28 1008.21 1008.13 1008.02 1007.89 1007.74 1007.57 1007.41 1007.28 1007.20
1010.65 1010.82 1010.89 1010.86 1010.79 1010.69 1010.60 1010.55 1010.53 1010.54 1010.56 1010.58 1010.57 1010.53 1010.44 1010.32 1010.17 1010.01 1009.85 1009.71 1009.59 1009.48 1009.38 1009.27 1009.14 1008.99 1008.82 1008.65 1008.47 1008.32 1008.20 1008.13 1008.08 1008.07 1008.06 1008.04 1008.00 1007.92 1007.80 1007.66 1007.51 1007.37 1007.26
1010.71 1010.83 1010.83 1010.75 1010.62 1010.48 1010.35 1010.25 1010.20 1010.18 1010.18 1010.17 1010.14 1010.07 1009.97 1009.84 1009.69 1009.53 1009.39 1009.27 1009.17 1009.09 1009.00 1008.90 1008.78 1008.63 1008.46 1008.28 1008.10 1007.95 1007.84 1007.77 1007.76 1007.77 1007.81 1007.84 1007.84 1007.82 1007.75 1007.65 1007.53 1007.41 1007.30
1010.82 1010.88 1010.83 1010.69 1010.50 1010.31 1010.14 1010.00 1009.91 1009.84 1009.80 1009.75 1009.67 1009.56 1009.42 1009.26 1009.09 1008.93 1008.80 1008.69 1008.62 1008.57 1008.51 1008.45 1008.35 1008.22 1008.07 1007.89 1007.72 1007.57 1007.46 1007.39 1007.38 1007.41 1007.46 1007.52 1007.57 1007.59 1007.57 1007.53 1007.46 1007.38 1007.29
1010.95 1010.95 1010.84 1010.65 1010.41 1010.17 1009.95 1009.77 1009.62 1009.51 1009.40 1009.27 1009.13 1008.95 1008.75 1008.54 1008.33 1008.16 1008.02 1007.94 1007.90 1007.88 1007.88 1007.86 1007.82 1007.74 1007.61 1007.47 1007.31 1007.17 1007.05 1006.99 1006.97 1006.99 1007.05 1007.12 1007.19 1007.25 1007.28 1007.29 1007.28 1007.25 1007.22
1011.07 1011.00 1010.83 1010.59 1010.31 1010.02 1009.76 1009.53 1009.33 1009.14 1008.95 1008.74 1008.51 1008.24 1007.96 1007.68 1007.42 1007.22 1007.08 1007.01 1007.00 1007.03 1007.09 1007.14 1007.17 1007.15 1007.09 1006.99 1006.86 1006.74 1006.63 1006.56 1006.53 1006.54 1006.59 1006.65 1006.73 1006.81 1006.88 1006.94 1006.99 1007.03 1007.06
1011.11 1010.98 1010.76 1010.47 1010.16 1009.84 1009.54 1009.26 1008.99 1008.73 1008.45 1008.15 1007.81 1007.44 1007.07 1006.71 1006.40 1006.16 1006.01 1005.95 1005.97 1006.06 1006.19 1006.32 1006.42 1006.49 1006.50 1006.46 1006.38 1006.29 1006.20 1006.13 1006.09 1006.08 1006.10 1006.16 1006.23 1006.32 1006.41 1006.50 1006.60 1006.70 1006.81
1011.05 1010.86 1010.60 1010.28 1009.94 1009.59 1009.26 1008.94 1008.61 1008.28 1007.91 1007.51 1007.07 1006.61 1006.14 1005.71 1005.34 1005.07 1004.90 1004.86 1004.92 1005.06 1005.25 1005.45 1005.64 1005.78 1005.87 1005.90 1005.88 1005.83 1005.76 1005.69 1005.64 1005.62 1005.62 1005.65 1005.70 1005.78 1005.88 1005.99 1006.12 1006.28 1006.44
1010.87 1010.63 1010.34 1010.00 1009.65 1009.29 1008.93 1008.57 1008.20 1007.79 1007.35 1006.86 1006.33 1005.79 1005.25 1004.76 1004.35 1004.05 1003.88 1003.84 1003.93 1004.12 1004.36 1004.63 1004.88 1005.10 1005.25 1005.34 1005.37 1005.36 1005.31 1005.26 1005.20 1005.16 1005.14 1005.14 1005.17 1005.23 1005.31 1005.43 1005.58 1005.75 1005.96
1010.58 1010.32 1010.00 1009.66 1009.30 1008.94 1008.57 1008.18 1007.76 1007.31 1006.80 1006.25 1005.65 1005.05 1004.46 1003.93 1003.50 1003.18 1003.02 1003.00 1003.11 1003.32 1003.60 1003.91 1004.21 1004.47 1004.67 1004.80 1004.87 1004.89 1004.87 1004.82 1004.76 1004.71 1004.67 1004.65 1004.65 1004.67 1004.74 1004.84 1004.98 1005.16 1005.38
1010.24 1009.95 1009.63 1009.28 1008.93 1008.56 1008.18 1007.78 1007.34 1006.84 1006.30 1005.70 1005.07 1004.43 1003.82 1003.28 1002.84 1002.53 1002.37 1002.36 1002.48 1002.71 1003.00 1003.32 1003.64 1003.92 1004.14 1004.30 1004.39 1004.43 1004.43 1004.39 1004.34 1004.28 1004.22 1004.17 1004.14 1004.14 1004.17 1004.24 1004.35 1004.52 1004.74
1009.89 1009.58 1009.25 1008.91 1008.55 1008.19 1007.80 1007.39 1006.93 1006.41 1005.84 1005.22 1004.58 1003.94 1003.33 1002.80 1002.38 1002.09 1001.94 1001.93 1002.06 1002.28 1002.56 1002.87 1003.17 1003.44 1003.67 1003.83 1003.93 1003.99 1003.99 1003.97 1003.92 1003.86 1003.80 1003.73 1003.67 1003.64 1003.63 1003.66 1003.74 1003.87 1004.06
1009.58 1009.25 1008.91 1008.56 1008.20 1007.83 1007.44 1007.01 1006.54 1006.01 1005.43 1004.82 1004.18 1003.56 1002.98 1002.47 1002.08 1001.81 1001.67 1001.67 1001.79 1001.98 1002.24 1002.52 1002.79 1003.04 1003.24 1003.40 1003.50 1003.57 1003.59 1003.58 1003.54 1003.49 1003.42 1003.34 1003.26 1003.19 1003.14 1003.12 1003.15 1003.24 1003.39
1009.33 1008.97 1008.61 1008.24 1007.87 1007.49 1007.08 1006.64 1006.16 1005.63 1005.06 1004.45 1003.84 1003.25 1002.70 1002.24 1001.88 1001.63 1001.51 1001.50 1001.60 1001.77 1001.99 1002.22 1002.46 1002.68 1002.86 1003.01 1003.11 1003.18 1003.22 1003.23 1003.21 1003.16 1003.09 1003.00 1002.90 1002.79 1002.70 1002.64 1002.61 1002.65 1002.74
1009.14 1008.75 1008.36 1007.96 1007.57 1007.16 1006.74 1006.28 1005.79 1005.25 1004.69 1004.10 1003.52 1002.96 1002.46 1002.03 1001.71 1001.48 1001.37 1001.36 1001.43 1001.57 1001.75 1001.95 1002.15 1002.35 1002.52 1002.66 1002.78 1002.87 1002.93 1002.96 1002.95 1002.91 1002.84 1002.73 1002.60 1002.46 1002.31 1002.19 1002.12 1002.09 1002.13
1009.01 1008.57 1008.13 1007.70 1007.27 1006.84 1006.39 1005.92 1005.41 1004.88 1004.33 1003.77 1003.21 1002.69 1002.23 1001.84 1001.53 1001.33 1001.21 1001.19 1001.25 1001.36 1001.51 1001.69 1001.87 1002.05 1002.22 1002.38 1002.52 1002.63 1002.72 1002.77 1002.78 1002.74 1002.65 1002.52 1002.35 1002.16 1001.96 1001.78 1001.63 1001.55 1001.54
1008.90 1008.41 1007.93 1007.46 1006.99 1006.53 1006.06 1005.57 1005.06 1004.53 1003.99 1003.45 1002.93 1002.44 1002.01 1001.64 1001.36 1001.16 1001.05 1001.02 1001.05 1001.14 1001.27 1001.44 1001.62 1001.80 1001.99 1002.18 1002.34 1002.49 1002.60 1002.67 1002.69 1002.64 1002.53 1002.36 1002.13 1001.87 1001.61 1001.36 1001.15 1001.01 1000.95
1008.82 1008.28 1007.75 1007.24 1006.74 1006.25 1005.76 1005.26 1004.75 1004.24 1003.71 1003.20 1002.71 1002.25 1001.84 1001.50 1001.22 1001.03 1000.91 1000.86 1000.88 1000.95 1001.08 1001.23 1001.42 1001.63 1001.84 1002.06 1002.27 1002.44 1002.58 1002.66 1002.67 1002.60 1002.45 1002.21 1001.92 1001.59 1001.24 1000.92 1000.64 1000.44 1000.33
1008.76 1008.18 1007.62 1007.08 1006.55 1006.04 1005.54 1005.04 1004.54 1004.04 1003.55 1003.06 1002.60 1002.17 1001.78 1001.45 1001.18 1000.98 1000.85 1000.78 1000.78 1000.84 1000.95 1001.11 1001.31 1001.54 1001.78 1002.03 1002.27 1002.47 1002.62 1002.70 1002.69 1002.59 1002.38 1002.08 1001.71 1001.29 1000.86 1000.45 1000.11 999.85 999.71
1008.75 1008.14 1007.55 1006.99 1006.45 1005.94 1005.44 1004.95 1004.47 1003.99 1003.53 1003.08 1002.65 1002.25 1001.88 1001.56 1001.29 1001.07 1000.92 1000.83 1000.81 1000.84 1000.94 1001.09 1001.29 1001.53 1001.80 1002.07 1002.32 1002.54 1002.69 1002.76 1002.72 1002.57 1002.30 1001.93 1001.48 1000.98 1000.47 999.99 999.58 999.28 999.10
1008.80 1008.18 1007.58 1007.01 1006.47 1005.96 1005.48 1005.01 1004.56 1004.12 1003.69 1003.28 1002.88 1002.51 1002.16 1001.85 1001.57 1001.34 1001.16 1001.04 1000.98 1000.98 1001.05 1001.18 1001.37 1001.60 1001.86 1002.13 1002.39 1002.60 1002.74 1002.79 1002.71 1002.52 1002.20 1001.77 1001.26 1000.69 1000.12 999.58 999.12 998.78 998.58
1008.93 1008.31 1007.72 1007.15 1006.62 1006.13 1005.66 1005.22 1004.80 1004.40 1004.02 1003.65 1003.29 1002.94 1002.61 1002.30 1002.02 1001.77 1001.55 1001.39 1001.28 1001.24 1001.26 1001.34 1001.49 1001.69 1001.93 1002.18 1002.41 1002.61 1002.73 1002.75 1002.65 1002.42 1002.07 1001.60 1001.05 1000.44 999.83 999.27 998.78 998.41 998.20
1009.12 1008.53 1007.95 1007.40 1006.88 1006.41 1005.97 1005.56 1005.17 1004.81 1004.47 1004.14 1003.81 1003.49 1003.18 1002.87 1002.58 1002.30 1002.05 1001.84 1001.67 1001.56 1001.52 1001.54 1001.63 1001.78 1001.96 1002.17 1002.37 1002.53 1002.62 1002.62 1002.50 1002.26 1001.90 1001.42 1000.87 1000.26 999.65 999.08 998.60 998.23 998.02
1009.38 1008.80 1008.25 1007.72 1007.22 1006.77 1006.35 1005.97 1005.62 1005.29 1004.98 1004.68 1004.39 1004.10 1003.80 1003.49 1003.19 1002.88 1002.59 1002.33 1002.10 1001.91 1001.79 1001.74 1001.74 1001.81 1001.93 1002.08 1002.23 1002.35 1002.41 1002.40 1002.28 1002.05 1001.70 1001.25 1000.72 1000.15 999.58 999.04 998.58 998.23 998.03
Thickness
5685 5682 5678 5675 5672 5669 5665 5661 5658 5655 5651 5648 5645 5642 5640 5637 5634 5632 5629 5627 5625 5623 5621 5619 5617 5616 5614 5612 5610 5609 5607 5606 5605 5605 5605 5606 5607 5608 5610 5612 5614 5616 5618
5682 5679 5675 5672 5669 5666 5662 5659 5656 5652 5649 5646 5643 5640 5637 5634 5631 5629 5626 5624 5621 5619 5617 5616 5614 5613 5611 5609 5607 5606 5604 5603 5602 5601 5601 5601 5601 5603 5604 5606 5608 5610 5612
5680 5676 5673 5669 5666 5663 5660 5657 5654 5650 5647 5644 5640 5637 5635 5632 5628 5626 5623 5621 5618 5616 5614 5612 5611 5609 5608 5606 5604 5603 5602 5600 5598 5597 5596 5596 5596 5598 5599 5601 5602 5604 5606
5678 5674 5671 5667 5664 5661 5658 5655 5651 5648 5645 5641 5638 5635 5632 5629 5626 5623 5620 5617 5615 5613 5611 5609 5608 5606 5605 5604 5602 5601 5599 5597 5594 5593 5592 5592 5592 5593 5594 5595 5597 5598 5600
5676 5672 5669 5666 5663 5659 5656 5652 5649 5645 5643 5639 5636 5633 5630 5627 5624 5620 5617 5615 5612 5610 5608 5607 5605 5604 5603 5601 5600 5598 5596 5594 5592 5590 5589 5589 5590 5590 5591 5592 5593 5594 5595
5673 5670 5668 5664 5661 5657 5653 5650 5646 5642 5639 5636 5633 5629 5626 5624 5621 5618 5615 5612 5609 5607 5605 5604 5603 5602 5601 5599 5598 5597 5595 5592 5590 5589 5588 5588 5589 5588 5588 5589 5590 5591 5592
5670 5668 5665 5662 5658 5655 5651 5647 5643 5639 5636 5633 5630 5626 5623 5620 5617 5615 5612 5609 5607 5604 5603 5601 5600 5600 5598 5596 5595 5594 5592 5591 5589 5588 5588 5588 5588 5588 5587 5588 5588 5589 5590
5668 5665 5662 5659 5655 5652 5648 5644 5640 5637 5633 5630 5627 5623 5620 5617 5615 5612 5610 5607 5604 5602 5600 5599 5597 5596 5595 5593 5593 5592 5590 5589 5588 5587 5587 5587 5587 5587 5587 5587 5588 5587 5587
5665 5662 5659 5656 5652 5648 5645 5641 5638 5634 5631 5627 5624 5621 5617 5615 5612 5610 5608 5604 5602 5600 5598 5596 5595 5594 5593 5591 5590 5589 5588 5587 5587 5586 5586 5586 5586 5585 5585 5586 5586 5587 5587
5662 5659 5656 5653 5649 5646 5642 5639 5635 5632 5628 5625 5622 5619 5615 5613 5611 5608 5606 5603 5600 5598 5596 5594 5592 5591 5590 5588 5588 5587 5586 5585 5585 5585 5585 5585 5584 5584 5584 5584 5585 5586 5586
5659 5656 5653 5650 5647 5643 5639 5636 5633 5629 5626 5623 5620 5617 5614 5611 5609 5607 5604 5601 5598 5596 5594 5592 5591 5589 5588 5587 5586 5585 5584 5583 5582 5583 5583 5583 5583 5583 5583 5582 5583 5583 5584
5653 5651 5648 5645 5643 5641 5636 5633 5630 5626 5623 5620 5617 5614 5612 5610 5607 5605 5602 5600 5597 5594 5592 5591 5589 5587 5586 5585 5584 5584 5583 5582 5581 5581 5581 5581 5581 5581 5581 5581 5581 5581 5581
5647 5645 5642 5640 5638 5636 5633 5630 5626 5623 5621 5618 5615 5613 5611 5608 5606 5604 5601 5598 5595 5592 5591 5589 5588 5586 5585 5585 5584 5583 5582 5581 5580 5580 5579 5579 5579 5578 5578 5578 5579 5579 5578
5641 5639 5637 5635 5633 5631 5629 5627 5624 5621 5619 5617 5614 5611 5609 5607 5605 5602 5599 5596 5593 5591 5589 5587 5586 5585 5584 5583 5582 5581 5580 5580 5579 5578 5577 5577 5576 5576 5576 5576 5577 5576 5576
5636 5634 5632 5630 5629 5627 5625 5624 5623 5621 5619 5616 5613 5610 5607 5605 5604 5600 5597 5595 5592 5589 5586 5585 5584 5583 5582 5581 5581 5580 5579 5579 5578 5577 5576 5575 5574 5574 5574 5573 5573 5573 5572
5631 5629 5628 5626 5624 5623 5621 5620 5620 5618 5616 5614 5612 5609 5608 5605 5603 5599 5597 5594 5591 5587 5585 5583 5582 5581 5580 5579 5579 5579 5579 5578 5577 5576 5575 5574 5573 5572 5572 5571 5570 5569 5569
5626 5625 5624 5622 5621 5619 5617 5617 5615 5614 5613 5611 5609 5608 5606 5604 5601 5598 5596 5592 5589 5586 5585 5583 5581 5579 5579 5578 5578 5578 5578 5577 5576 5575 5574 5573 5572 5571 5570 5569 5568 5567 5566
5622 5621 5620 5619 5618 5616 5615 5614 5613 5611 5610 5609 5607 5605 5603 5601 5599 5597 5593 5591 5588 5586 5585 5583 5581 5579 5578 5577 5577 5576 5576 5575 5575 5574 5573 5572 5570 5569 5568 5567 5566 5565 5565
5617 5617 5616 5615 5614 5613 5612 5611 5610 5609 5608 5607 5605 5603 5601 5598 5596 5594 5591 5590 5589 5587 5585 5583 5581 5579 5578 5577 5576 5575 5574 5574 5573 5572 5571 5570 5569 5567 5567 5566 5565 5562 5562
5613 5612 5612 5612 5611 5610 5609 5608 5607 5606 5605 5604 5603 5602 5599 5596 5595 5593 5590 5589 5588 5587 5586 5584 5582 5580 5579 5577 5576 5574 5573 5572 5571 5570 5569 5568 5567 5566 5565 5564 5563 5562 5561
5608 5608 5607 5607 5607 5607 5605 5604 5604 5603 5602 5602 5602 5601 5598 5596 5596 5594 5592 5590 5589 5587 5585 5583 5582 5580 5578 5576 5574 5573 5572 5571 5569 5568 5567 5566 5565 5564 5563 5563 5562 5560 5559
5603 5603 5602 5602 5602 5602 5601 5601 5600 5600 5599 5599 5599 5598 5595 5595 5594 5593 5592 5590 5589 5587 5585 5583 5582 5580 5578 5576 5574 5573 5571 5570 5568 5567 5566 5565 5564 5563 5562 5561 5560 5559 5558
5597 5597 5597 5597 5597 5596 5596 5596 5596 5595 5596 5596 5596 5595 5594 5593 5592 5592 5591 5589 5588 5586 5584 5582 5581 5579 5578 5576 5574 5572 5571 5570 5568 5567 5565 5564 5563 5562 5561 5560 5559 5557 5556
5591 5591 5591 5592 5591 5591 5592 5592 5591 5591 5592 5591 5591 5591 5591 5591 5591 5590 5589 5588 5586 5585 5583 5581 5580 5579 5578 5576 5574 5572 5571 5569 5567 5566 5564 5563 5562 5561 5559 5558 5558 5556 5555
5586 5586 5586 5586 5586 5587 5587 5587 5587 5587 5587 5587 5588 5588 5588 5588 5589 5588 5587 5586 5585 5583 5582 5580 5579 5578 5577 5576 5574 5572 5570 5569 5567 5565 5563 5562 5561 5559 5558 5557 5555 5553 5552
5580 5581 5580 5580 5581 5581 5582 5582 5583 5583 5583 5584 5584 5585 5585 5586 5586 5586 5585 5584 5582 5581 5580 5578 5577 5577 5576 5574 5573 5571 5569 5568 5566 5564 5562 5561 5560 5558 5556 5554 5553 5551 5550